Valborg — OFNR — position and weather

sailwx.info

Track history (hours):
 
Tides and Currents Weather Stations Pressure Air Temp Water Temp Dewpoint Dewpoint Depression Visibility Wind Speed Wind Dir Waves Ship Positions

Valborg

Last reported at 2014-Sep-21 13:14 UTC. Time now 2014-Nov-01 04:07 UTC.
Position N 60°10' E 024°58'.
Warning: this ship's position is 40 days out of date.

Length 30 m; draft 2.4 m.

Type: Sailing vessel. MMSI: 230108270.

Date/timePositionNaut miles runAvg speedWind from/ knotsBaromVisibWave heightAir tempDewpointWater temp
2014-Sep-21 13:14N 60°10' E 024°58'1 0.9
2014-Sep-21 11:33N 60°09' E 024°59'1 0.6
2014-Sep-21 10:33N 60°09' E 025°00'  
2014-Sep-18 17:33N 60°10' E 024°59'1 1.3
2014-Sep-18 16:32N 60°09' E 025°01'2 1.8
2014-Sep-18 15:33N 60°09' E 024°57'  
2014-Sep-13 13:33N 60°10' E 024°59'3 2.6
2014-Sep-13 12:33N 60°08' E 024°56'3 2.6
2014-Sep-13 11:32N 60°10' E 025°00'0 0.0
2014-Sep-12 15:34N 60°10' E 024°59'2 1.8
2014-Sep-12 14:34N 60°08' E 024°59'1 1.4
2014-Sep-12 13:33N 60°09' E 024°57'  
Track history (hours):
 
Tides and Currents Weather Stations Pressure Air Temp Water Temp Dewpoint Dewpoint Depression Visibility Wind Speed Wind Dir Waves Ship Positions

Valborg

Last reported at 2014-Sep-21 13:14 UTC. Time now 2014-Nov-01 04:07 UTC.
Position N 60°10' E 024°58'.
Warning: this ship's position is 40 days out of date.

Length 30 m; draft 2.4 m.

Type: Sailing vessel. MMSI: 230108270.

Date/timePositionNaut miles runAvg speedWind from/ knotsBaromVisibWave heightAir tempDewpointWater temp
2014-Sep-21 13:14N 60°10' E 024°58'1 0.9
2014-Sep-21 11:33N 60°09' E 024°59'1 0.6
2014-Sep-21 10:33N 60°09' E 025°00'  
2014-Sep-18 17:33N 60°10' E 024°59'1 1.3
2014-Sep-18 16:32N 60°09' E 025°01'2 1.8
2014-Sep-18 15:33N 60°09' E 024°57'  
2014-Sep-13 13:33N 60°10' E 024°59'3 2.6
2014-Sep-13 12:33N 60°08' E 024°56'3 2.6
2014-Sep-13 11:32N 60°10' E 025°00'0 0.0
2014-Sep-12 15:34N 60°10' E 024°59'2 1.8
2014-Sep-12 14:34N 60°08' E 024°59'1 1.4
2014-Sep-12 13:33N 60°09' E 024°57'  

Dump ship's entire track history